CW7858 Murcia ES current weather conditions

sailwx.info

Wind from 037 at 6 knots gusting 11

Air temperature 30.6° C
Dewpoint 13.8° C

Last reported at 2018-Jun-24 12:02 UTC.
Time now 2018-Jun-24 13:03 UTC

Location: N 37°60' W 001°08'.
View on Google Maps.

See reports from other nearby stations

  
Tides and Currents Weather Stations Pressure Air Temp Water Temp Dewpoint Dewpoint Depression Visibility Wind Speed Wind Dir Waves Ship Positions
date/time (UTC)wind fromknots sea level pressurealtimeterstation pressurevisibilityair tempwater tempwave heightnotes
2018-Jun-24 12:02 037 6 gusting 11 30.6
2018-Jun-24 11:52 040 4 gusting 10 30.6
2018-Jun-24 11:42 090 5 gusting 12 30.6
2018-Jun-24 11:32 061 4 gusting 9 30.0
2018-Jun-24 11:22 042 4 gusting 12 30.0
2018-Jun-24 11:12 037 3 gusting 6 30.0
2018-Jun-24 11:02 134 3 gusting 12 29.4
2018-Jun-24 10:52 073 4 gusting 6 29.4
2018-Jun-24 10:42 032 5 gusting 8 29.4
2018-Jun-24 10:32 184 0 gusting 6 29.4
2018-Jun-24 10:22 037 2 gusting 10 28.9
2018-Jun-24 10:12 001 5 gusting 9 28.9
2018-Jun-24 10:02 151 0 gusting 6 28.9
2018-Jun-24 09:52 136 0 gusting 5 28.9
2018-Jun-24 09:42 360 28.3
2018-Jun-24 09:32 360 0 gusting 4 27.8
2018-Jun-24 09:22 344 0 gusting 2 27.2
2018-Jun-24 09:12 346 1 gusting 4 27.2
2018-Jun-24 09:02 360 1 gusting 2 27.8
2018-Jun-24 08:52 299 0 gusting 3 27.8
2018-Jun-24 08:42 169 0 gusting 2 27.8
2018-Jun-24 08:32 182 0 gusting 2 27.2
2018-Jun-24 08:22 212 0 gusting 4 27.2
2018-Jun-24 08:12 195 0 gusting 2 26.7
2018-Jun-24 08:02 298 1 gusting 2 26.1
2018-Jun-24 07:52 253 2 gusting 4 25.6
2018-Jun-24 07:42 241 0 gusting 3 25.6
2018-Jun-24 07:32 278 1 gusting 3 25.0
2018-Jun-24 07:22 247 1 gusting 5 25.0
2018-Jun-24 07:12 246 1 gusting 4 23.9
2018-Jun-24 07:02 215 0 gusting 4 23.9
2018-Jun-24 06:52 150 0 gusting 2 23.3
2018-Jun-24 06:42 205 1 gusting 3 23.3
2018-Jun-24 06:32 260 1 gusting 3 23.3
2018-Jun-24 06:22 196 1 gusting 2 22.8
2018-Jun-24 06:12 220 0 gusting 1 22.2
2018-Jun-24 06:02 246 22.2
2018-Jun-24 05:52 215 0 gusting 1 21.7
2018-Jun-24 05:42 251 1 gusting 2 21.1
2018-Jun-24 05:32 212 0 gusting 2 21.1
2018-Jun-24 05:22 250 0 gusting 1 21.1
2018-Jun-24 05:12 232 0 gusting 4 21.1
2018-Jun-24 05:02 268 0 gusting 2 21.1
2018-Jun-24 04:52 234 1 gusting 4 21.1
2018-Jun-24 04:42 243 1 gusting 4 21.1
2018-Jun-24 04:32 220 0 gusting 2 21.1
2018-Jun-24 04:22 220 0 gusting 4 21.1
2018-Jun-24 04:12 195 0 gusting 1 21.7
2018-Jun-24 04:02 191 0 gusting 1 21.7
2018-Jun-24 03:52 196 21.7
2018-Jun-24 03:42 192 0 gusting 1 22.2
2018-Jun-24 03:32 200 22.2
2018-Jun-24 03:22 205 1 gusting 2 22.2
2018-Jun-24 03:12 222 22.8
2018-Jun-24 03:02 184 22.8
2018-Jun-24 02:52 052 22.8
2018-Jun-24 02:42 025 0 gusting 2 22.8
2018-Jun-24 02:32 056 0 gusting 2 23.3
2018-Jun-24 02:22 068 0 gusting 1 23.3
2018-Jun-24 02:12 059 0 gusting 2 23.3
2018-Jun-24 02:02 073 1 gusting 3 23.3
2018-Jun-24 01:52 065 23.3
2018-Jun-24 01:42 342 0 gusting 1 23.3
2018-Jun-24 01:32 034 0 gusting 1 23.3
2018-Jun-24 01:22 037 0 gusting 0 23.3
2018-Jun-24 01:12 059 23.3
2018-Jun-24 01:02 069 0 gusting 2 23.9
2018-Jun-24 00:52 020 0 gusting 2 23.9
2018-Jun-24 00:42 004 0 gusting 2 23.9
2018-Jun-24 00:32 064 0 gusting 2 23.9
2018-Jun-24 00:22 079 0 gusting 1 23.9
2018-Jun-24 00:12 058 1 gusting 2 23.9
2018-Jun-24 00:02 030 1 gusting 2 23.9
2018-Jun-23 23:52 099 0 gusting 2 23.9
2018-Jun-23 23:42 058 0 gusting 3 23.9
2018-Jun-23 23:32 044 1 gusting 2 23.9
2018-Jun-23 23:22 080 1 gusting 2 23.9
2018-Jun-23 23:12 083 2 gusting 6 23.9
2018-Jun-23 23:02 049 1 gusting 6 23.9
2018-Jun-23 22:52 080 0 gusting 6 23.9
2018-Jun-23 22:42 080 3 gusting 6 24.4
2018-Jun-23 22:32 072 4 gusting 6 24.4
2018-Jun-23 22:22 080 3 gusting 6 23.9
2018-Jun-23 22:12 082 4 gusting 6 23.9
2018-Jun-23 22:02 099 4 gusting 8 24.4
2018-Jun-23 21:52 078 4 gusting 8 24.4
2018-Jun-23 21:42 061 1 gusting 9 24.4
2018-Jun-23 21:32 079 4 gusting 7 25.0
2018-Jun-23 21:22 093 3 gusting 6 25.0
2018-Jun-23 21:12 065 2 gusting 9 25.0
2018-Jun-23 21:02 092 6 gusting 7 25.0
2018-Jun-23 20:52 360 2 gusting 6 25.0
2018-Jun-23 20:42 007 4 gusting 8 25.6
2018-Jun-23 20:32 093 3 gusting 6 25.6
2018-Jun-23 20:22 061 5 gusting 8 25.6
2018-Jun-23 20:12 078 4 gusting 8 26.1
2018-Jun-23 20:02 088 3 gusting 6 26.1
2018-Jun-23 19:52 059 0 gusting 6 26.1
2018-Jun-23 19:42 069 4 gusting 9 26.7
2018-Jun-23 19:32 112 4 gusting 9 26.7
2018-Jun-23 19:22 079 3 gusting 6 27.2
2018-Jun-23 19:12 088 6 gusting 11 27.2
2018-Jun-23 19:02 110 4 gusting 12 27.2
2018-Jun-23 18:52 109 6 gusting 11 27.2
2018-Jun-23 18:42 114 7 gusting 11 27.8
2018-Jun-23 18:32 079 5 gusting 11 27.8
2018-Jun-23 18:22 069 5 gusting 12 28.3
2018-Jun-23 18:12 072 7 gusting 12 28.9
2018-Jun-23 18:02 061 5 gusting 11 28.9
2018-Jun-23 17:52 007 7 gusting 12 28.9
2018-Jun-23 17:42 072 4 gusting 10 29.4
2018-Jun-23 17:32 069 5 gusting 13 29.4
2018-Jun-23 17:22 069 7 gusting 13 29.4
2018-Jun-23 17:12 120 6 gusting 12 30.0
2018-Jun-23 17:02 093 7 gusting 13 29.4
2018-Jun-23 16:52 049 2 gusting 12 30.0
2018-Jun-23 16:42 112 5 gusting 12 30.6
2018-Jun-23 16:32 071 7 gusting 13 30.6
2018-Jun-23 16:22 140 2 gusting 16 30.6
2018-Jun-23 16:12 093 8 gusting 13 31.1
2018-Jun-23 16:02 097 8 gusting 14 30.6
2018-Jun-23 15:52 011 3 gusting 12 31.1
2018-Jun-23 15:42 128 6 gusting 12 31.7
2018-Jun-23 15:32 068 3 gusting 11 32.2
2018-Jun-23 15:22 058 4 gusting 11 31.7
2018-Jun-23 15:12 176 5 gusting 11 31.7
2018-Jun-23 15:02 157 4 gusting 11 31.7
2018-Jun-23 14:52 113 3 gusting 11 31.7
2018-Jun-23 14:42 121 6 gusting 14 31.7
2018-Jun-23 14:32 112 6 gusting 12 32.2
2018-Jun-23 14:22 357 2 gusting 12 31.7
2018-Jun-23 14:12 093 3 gusting 13 31.7
2018-Jun-23 14:02 075 7 gusting 12 32.2
2018-Jun-23 13:52 102 6 gusting 13 31.7
2018-Jun-23 13:42 099 5 gusting 10 31.7
2018-Jun-23 13:32 107 6 gusting 12 31.7
2018-Jun-23 13:22 055 4 gusting 13 31.7
2018-Jun-23 13:12 083 1 gusting 12 32.2
2018-Jun-23 13:02 064 3 gusting 13 31.7
2018-Jun-23 12:52 090 5 gusting 12 31.7
2018-Jun-23 12:42 116 6 gusting 11 31.1
2018-Jun-23 12:32 119 6 gusting 11 31.1
2018-Jun-23 12:22 072 3 gusting 12 31.1
2018-Jun-23 12:12 075 4 gusting 11 31.1
2018-Jun-23 12:02 068 6 gusting 12 31.1
2018-Jun-23 11:52 226 5 gusting 13 31.1
2018-Jun-23 11:42 076 6 gusting 13 31.1
2018-Jun-23 11:32 066 4 gusting 12 31.1
2018-Jun-23 11:22 049 5 gusting 14 30.6
2018-Jun-23 11:12 099 7 gusting 14 31.1
2018-Jun-23 11:02 008 6 gusting 11 30.6
2018-Jun-23 10:52 072 5 gusting 12 30.6
2018-Jun-23 10:42 054 6 gusting 11 30.0
2018-Jun-23 10:32 066 7 gusting 10 30.0
2018-Jun-23 10:22 035 6 gusting 9 30.0
2018-Jun-23 10:12 073 1 gusting 6 30.0
2018-Jun-23 10:02 099 2 gusting 9 29.4
2018-Jun-23 09:52 076 1 gusting 9 29.4
2018-Jun-23 09:42 099 0 gusting 6 28.9
2018-Jun-23 09:32 027 2 gusting 6 28.3
2018-Jun-23 09:22 035 1 gusting 5 28.3
2018-Jun-23 09:12 017 2 gusting 6 27.8
2018-Jun-23 09:02 049 3 gusting 5 28.3
2018-Jun-23 08:52 100 3 gusting 6 27.8
2018-Jun-23 08:42 360 0 gusting 2 27.8
2018-Jun-23 08:32 176 0 gusting 2 27.8
2018-Jun-23 08:22 158 0 gusting 2 27.2
2018-Jun-23 08:12 167 0 gusting 5 26.7
2018-Jun-23 08:02 165 1 gusting 4 26.7
2018-Jun-23 07:52 179 1 gusting 4 26.7
2018-Jun-23 07:42 188 0 gusting 2 26.7
2018-Jun-23 07:32 209 0 gusting 2 25.6
2018-Jun-23 07:22 193 0 gusting 2 25.0
2018-Jun-23 07:12 210 0 gusting 2 25.0
2018-Jun-23 07:02 240 1 gusting 2 24.4
2018-Jun-23 06:52 301 0 gusting 2 24.4
2018-Jun-23 06:42 247 24.4
2018-Jun-23 06:32 275 0 gusting 1 23.9
2018-Jun-23 06:22 322 23.3
2018-Jun-23 06:12 289 0 gusting 1 22.8
2018-Jun-23 06:02 251 0 gusting 1 22.2
2018-Jun-23 05:52 257 0 gusting 2 21.7
2018-Jun-23 05:42 215 0 gusting 2 21.7
2018-Jun-23 05:32 222 0 gusting 2 21.1
2018-Jun-23 05:22 253 0 gusting 4 21.1
2018-Jun-23 05:12 215 0 gusting 2 21.1
2018-Jun-23 05:02 203 0 gusting 3 21.1
2018-Jun-23 04:52 243 1 gusting 3 21.7
2018-Jun-23 04:42 189 0 gusting 1 21.7
2018-Jun-23 04:32 209 21.7
2018-Jun-23 04:22 213 0 gusting 1 21.7
2018-Jun-23 04:12 250 21.7
2018-Jun-23 04:02 250 21.7
2018-Jun-23 03:52 253 0 gusting 1 21.7
2018-Jun-23 03:42 244 21.7
2018-Jun-23 03:32 205 21.7
2018-Jun-23 03:22 103 1 gusting 2 21.7
2018-Jun-23 03:12 206 0 gusting 2 21.7
2018-Jun-23 03:02 193 1 gusting 2 21.7
2018-Jun-23 02:52 243 21.7
2018-Jun-23 02:42 199 1 gusting 2 22.2
2018-Jun-23 02:32 209 0 gusting 2 22.2
2018-Jun-23 02:22 223 0 gusting 2 22.2
2018-Jun-23 02:12 191 22.8
2018-Jun-23 02:02 216 22.8
2018-Jun-23 01:52 220 0 gusting 3 22.8
2018-Jun-23 01:42 203 0 gusting 2 23.3
2018-Jun-23 01:32 237 23.3
2018-Jun-23 01:22 239 0 gusting 2 23.3
2018-Jun-23 01:12 219 0 gusting 2 23.9
2018-Jun-23 01:02 275 0 gusting 0 23.9
2018-Jun-23 00:52 072 0 gusting 1 23.9
2018-Jun-23 00:42 072 23.9
2018-Jun-23 00:32 072 23.9
2018-Jun-23 00:22 073 0 gusting 2 23.9
2018-Jun-23 00:12 075 0 gusting 4 23.9
2018-Jun-23 00:02 035 0 gusting 2 24.4
2018-Jun-22 23:52 078 1 gusting 4 24.4
2018-Jun-22 23:42 088 1 gusting 4 24.4
2018-Jun-22 23:32 071 1 gusting 5 24.4
2018-Jun-22 23:22 092 1 gusting 4 24.4
2018-Jun-22 23:12 068 0 gusting 4 25.0
2018-Jun-22 23:02 073 1 gusting 3 25.0
2018-Jun-22 22:52 048 1 gusting 5 25.0
2018-Jun-22 22:42 024 0 gusting 5 25.0
2018-Jun-22 22:32 016 2 gusting 4 25.6
2018-Jun-22 22:22 082 0 gusting 2 26.1
2018-Jun-22 22:12 107 0 gusting 2 26.1
2018-Jun-22 22:02 102 1 gusting 2 26.1
2018-Jun-22 21:52 096 1 gusting 2 26.1
2018-Jun-22 21:42 093 1 gusting 4 26.1
2018-Jun-22 21:32 138 1 gusting 2 26.7
2018-Jun-22 21:22 145 1 gusting 2 26.7
2018-Jun-22 21:12 093 26.7
2018-Jun-22 21:02 048 1 gusting 4 26.7
2018-Jun-22 20:52 104 1 gusting 5 26.7
2018-Jun-22 20:42 086 1 gusting 5 26.7
2018-Jun-22 20:32 110 1 gusting 6 26.7
2018-Jun-22 20:22 107 0 gusting 6 26.7
2018-Jun-22 20:12 107 1 gusting 6 26.7
2018-Jun-22 20:02 061 4 gusting 8 26.7
2018-Jun-22 19:52 093 5 gusting 6 27.2
2018-Jun-22 19:42 034 4 gusting 10 27.2
2018-Jun-22 19:32 016 3 gusting 12 27.2
2018-Jun-22 19:22 089 6 gusting 11 27.8
2018-Jun-22 19:12 079 7 gusting 11 27.8
2018-Jun-22 19:02 097 3 gusting 10 28.3
2018-Jun-22 18:52 035 5 gusting 11 28.3
2018-Jun-22 18:42 059 6 gusting 11 28.9
2018-Jun-22 18:32 102 6 gusting 12 28.9
2018-Jun-22 18:22 343 4 gusting 12 28.9
2018-Jun-22 18:12 055 6 gusting 13 29.4
2018-Jun-22 18:02 106 1 gusting 13 30.0
2018-Jun-22 17:52 030 1 gusting 13 30.0
2018-Jun-22 17:42 068 4 gusting 13 30.0
2018-Jun-22 17:32 056 8 gusting 12 30.0
2018-Jun-22 17:22 048 6 gusting 11 30.6
2018-Jun-22 17:12 164 5 gusting 14 31.1
2018-Jun-22 17:02 124 4 gusting 13 31.1
2018-Jun-22 16:52 093 6 gusting 13 31.7
2018-Jun-22 16:42 078 6 gusting 13 31.7
2018-Jun-22 16:32 104 6 gusting 14 31.7
2018-Jun-22 16:22 083 7 gusting 13 32.2
2018-Jun-22 16:12 106 8 gusting 12 32.8
2018-Jun-22 16:02 117 1 gusting 11 32.8
2018-Jun-22 15:52 109 4 gusting 10 32.8
2018-Jun-22 15:42 229 6 gusting 11 32.8
2018-Jun-22 15:32 349 6 gusting 12 32.8
2018-Jun-22 15:22 126 6 gusting 13 32.8
2018-Jun-22 15:12 203 1 gusting 12 32.8
2018-Jun-22 15:02 097 5 gusting 10 33.3
2018-Jun-22 14:52 078 10 gusting 16 32.8
2018-Jun-22 14:42 078 6 gusting 15 32.8
2018-Jun-22 14:32 059 4 gusting 14 32.8
2018-Jun-22 14:22 086 7 gusting 13 32.8
2018-Jun-22 14:12 062 4 gusting 12 33.3
2018-Jun-22 14:02 075 7 gusting 11 33.3
2018-Jun-22 13:52 360 4 gusting 10 32.8
2018-Jun-22 13:42 095 8 gusting 13 32.8
2018-Jun-22 13:32 080 9 gusting 13 32.8
2018-Jun-22 13:22 120 5 gusting 12 32.8
2018-Jun-22 13:12 200 4 gusting 12 33.3
2018-Jun-22 13:02 114 4 gusting 11 33.3